Year,Month,Day,Hour,Minute,Value (Times are PST for temperature in C)
2006,09,26,00,00,13.70
2006,09,26,00,01,13.70
2006,09,26,00,02,13.70
2006,09,26,00,03,13.70
2006,09,26,00,04,13.70
2006,09,26,00,05,13.70
2006,09,26,00,06,13.70
2006,09,26,00,07,13.70
2006,09,26,00,08,13.70
2006,09,26,00,09,13.70
2006,09,26,00,10,13.70
2006,09,26,00,11,13.70
2006,09,26,00,12,13.70
2006,09,26,00,13,13.60
2006,09,26,00,14,13.60
2006,09,26,00,15,13.60
2006,09,26,00,16,13.60
2006,09,26,00,17,13.60
2006,09,26,00,18,13.60
2006,09,26,00,19,13.60
2006,09,26,00,20,13.60
2006,09,26,00,21,13.60
2006,09,26,00,22,13.50
2006,09,26,00,23,13.50
2006,09,26,00,24,13.50
2006,09,26,00,25,13.50
2006,09,26,00,26,13.50
2006,09,26,00,27,13.50
2006,09,26,00,28,13.50
2006,09,26,00,29,13.50
2006,09,26,00,30,13.40
2006,09,26,00,31,13.40
2006,09,26,00,32,13.40
2006,09,26,00,33,13.40
2006,09,26,00,34,13.50
2006,09,26,00,35,13.50
2006,09,26,00,36,13.50
2006,09,26,00,37,13.40
2006,09,26,00,38,13.40
2006,09,26,00,39,13.40
2006,09,26,00,40,13.40
2006,09,26,00,41,13.40
2006,09,26,00,42,13.40
2006,09,26,00,43,13.40
2006,09,26,00,44,13.40
2006,09,26,00,45,13.40
2006,09,26,00,46,13.40
2006,09,26,00,47,13.40
2006,09,26,00,48,13.40
2006,09,26,00,49,13.30
2006,09,26,00,50,13.30
2006,09,26,00,51,13.30
2006,09,26,00,52,13.30
2006,09,26,00,53,13.30
2006,09,26,00,54,13.30
2006,09,26,00,55,13.30
2006,09,26,00,56,13.30
2006,09,26,00,57,13.30
2006,09,26,00,58,13.30
2006,09,26,00,59,13.30
2006,09,26,01,00,13.30
2006,09,26,01,01,13.30
2006,09,26,01,02,13.30
2006,09,26,01,03,13.30
2006,09,26,01,04,13.30
2006,09,26,01,05,13.30
2006,09,26,01,06,13.20
2006,09,26,01,07,13.20
2006,09,26,01,08,13.20
2006,09,26,01,09,13.20
2006,09,26,01,10,13.20
2006,09,26,01,11,13.20
2006,09,26,01,12,13.20
2006,09,26,01,13,13.20
2006,09,26,01,14,13.20
2006,09,26,01,15,13.20
2006,09,26,01,16,13.10
2006,09,26,01,17,13.10
2006,09,26,01,18,13.10
2006,09,26,01,19,13.10
2006,09,26,01,20,13.00
2006,09,26,01,21,13.00
2006,09,26,01,22,13.00
2006,09,26,01,23,13.00
2006,09,26,01,24,12.90
2006,09,26,01,25,12.90
2006,09,26,01,26,12.90
2006,09,26,01,27,12.90
2006,09,26,01,28,12.80
2006,09,26,01,29,12.80
2006,09,26,01,30,12.80
2006,09,26,01,31,12.80
2006,09,26,01,32,12.80
2006,09,26,01,33,12.80
2006,09,26,01,34,12.80
2006,09,26,01,35,12.80
2006,09,26,01,36,12.80
2006,09,26,01,37,12.80
2006,09,26,01,38,12.80
2006,09,26,01,39,12.80
2006,09,26,01,40,12.80
2006,09,26,01,41,12.80
2006,09,26,01,42,12.80
2006,09,26,01,43,12.80
2006,09,26,01,44,12.80
2006,09,26,01,45,12.80
2006,09,26,01,46,12.80
2006,09,26,01,47,12.80
2006,09,26,01,48,12.80
2006,09,26,01,49,12.80
2006,09,26,01,50,12.70
2006,09,26,01,51,12.70
2006,09,26,01,52,12.70
2006,09,26,01,53,12.70
2006,09,26,01,54,12.70
2006,09,26,01,55,12.70
2006,09,26,01,56,12.70
2006,09,26,01,57,12.60
2006,09,26,01,58,12.60
2006,09,26,01,59,12.60
2006,09,26,02,00,12.60
2006,09,26,02,01,12.60
2006,09,26,02,02,12.60
2006,09,26,02,03,12.60
2006,09,26,02,04,12.60
2006,09,26,02,05,12.60
2006,09,26,02,06,12.60
2006,09,26,02,07,12.60
2006,09,26,02,08,12.50
2006,09,26,02,09,12.50
2006,09,26,02,10,12.50
2006,09,26,02,11,12.50
2006,09,26,02,12,12.50
2006,09,26,02,13,12.40
2006,09,26,02,14,12.40
2006,09,26,02,15,12.40
2006,09,26,02,16,12.40
2006,09,26,02,17,12.40
2006,09,26,02,18,12.40
2006,09,26,02,19,12.40
2006,09,26,02,20,12.40
2006,09,26,02,21,12.40
2006,09,26,02,22,12.50
2006,09,26,02,23,12.50
2006,09,26,02,24,12.50
2006,09,26,02,25,12.50
2006,09,26,02,26,12.50
2006,09,26,02,27,12.50
2006,09,26,02,28,12.50
2006,09,26,02,29,12.50
2006,09,26,02,30,12.50
2006,09,26,02,31,12.50
2006,09,26,02,32,12.40
2006,09,26,02,33,12.40
2006,09,26,02,34,12.40
2006,09,26,02,35,12.30
2006,09,26,02,36,12.30
2006,09,26,02,37,12.30
2006,09,26,02,38,12.30
2006,09,26,02,39,12.20
2006,09,26,02,40,12.20
2006,09,26,02,41,12.20
2006,09,26,02,42,12.20
2006,09,26,02,43,12.20
2006,09,26,02,44,12.20
2006,09,26,02,45,12.20
2006,09,26,02,46,12.20
2006,09,26,02,47,12.20
2006,09,26,02,48,12.30
2006,09,26,02,49,12.30
2006,09,26,02,50,12.30
2006,09,26,02,51,12.20
2006,09,26,02,52,12.20
2006,09,26,02,53,12.20
2006,09,26,02,54,12.20
2006,09,26,02,55,12.20
2006,09,26,02,56,12.20
2006,09,26,02,57,12.20
2006,09,26,02,58,12.20
2006,09,26,02,59,12.30
2006,09,26,03,00,12.30
2006,09,26,03,01,12.30
2006,09,26,03,02,12.30
2006,09,26,03,03,12.30
2006,09,26,03,04,12.30
2006,09,26,03,05,12.30
2006,09,26,03,06,12.30
2006,09,26,03,07,12.30
2006,09,26,03,08,12.30
2006,09,26,03,09,12.30
2006,09,26,03,10,12.30
2006,09,26,03,11,12.30
2006,09,26,03,12,12.30
2006,09,26,03,13,12.30
2006,09,26,03,14,12.30
2006,09,26,03,15,12.30
2006,09,26,03,16,12.30
2006,09,26,03,17,12.20
2006,09,26,03,18,12.20
2006,09,26,03,19,12.20
2006,09,26,03,20,12.20
2006,09,26,03,21,12.20
2006,09,26,03,22,12.10
2006,09,26,03,23,12.10
2006,09,26,03,24,12.10
2006,09,26,03,25,12.10
2006,09,26,03,26,12.10
2006,09,26,03,27,12.10
2006,09,26,03,28,12.10
2006,09,26,03,29,12.10
2006,09,26,03,30,12.10
2006,09,26,03,31,12.10
2006,09,26,03,32,12.00
2006,09,26,03,33,12.00
2006,09,26,03,34,12.00
2006,09,26,03,35,12.00
2006,09,26,03,36,12.00
2006,09,26,03,37,12.00
2006,09,26,03,38,12.00
2006,09,26,03,39,12.00
2006,09,26,03,40,12.00
2006,09,26,03,41,12.00
2006,09,26,03,42,12.00
2006,09,26,03,43,12.00
2006,09,26,03,44,12.00
2006,09,26,03,45,12.00
2006,09,26,03,46,12.00
2006,09,26,03,47,12.00
2006,09,26,03,48,12.10
2006,09,26,03,49,12.10
2006,09,26,03,50,12.10
2006,09,26,03,51,12.10
2006,09,26,03,52,12.10
2006,09,26,03,53,12.10
2006,09,26,03,54,12.10
2006,09,26,03,55,12.10
2006,09,26,03,56,12.00
2006,09,26,03,57,12.00
2006,09,26,03,58,12.00
2006,09,26,03,59,12.00
2006,09,26,04,00,12.00
2006,09,26,04,01,12.00
2006,09,26,04,02,12.00
2006,09,26,04,03,12.00
2006,09,26,04,04,12.00
2006,09,26,04,05,12.00
2006,09,26,04,06,11.90
2006,09,26,04,07,11.90
2006,09,26,04,08,11.90
2006,09,26,04,09,11.90
2006,09,26,04,10,11.90
2006,09,26,04,11,11.90
2006,09,26,04,12,11.90
2006,09,26,04,13,11.80
2006,09,26,04,14,11.80
2006,09,26,04,15,11.80
2006,09,26,04,16,11.80
2006,09,26,04,17,11.80
2006,09,26,04,18,11.80
2006,09,26,04,19,11.80
2006,09,26,04,20,11.80
2006,09,26,04,21,11.80
2006,09,26,04,22,11.80
2006,09,26,04,23,11.70
2006,09,26,04,24,11.70
2006,09,26,04,25,11.70
2006,09,26,04,26,11.60
2006,09,26,04,27,11.60
2006,09,26,04,28,11.60
2006,09,26,04,29,11.60
2006,09,26,04,30,11.60
2006,09,26,04,31,11.60
2006,09,26,04,32,11.60
2006,09,26,04,33,11.60
2006,09,26,04,34,11.60
2006,09,26,04,35,11.60
2006,09,26,04,36,11.60
2006,09,26,04,37,11.60
2006,09,26,04,38,11.60
2006,09,26,04,39,11.60
2006,09,26,04,40,11.60
2006,09,26,04,41,11.60
2006,09,26,04,42,11.60
2006,09,26,04,43,11.60
2006,09,26,04,44,11.60
2006,09,26,04,45,11.60
2006,09,26,04,46,11.60
2006,09,26,04,47,11.60
2006,09,26,04,48,11.60
2006,09,26,04,49,11.60
2006,09,26,04,50,11.60
2006,09,26,04,51,11.40
2006,09,26,04,52,11.40
2006,09,26,04,53,11.40
2006,09,26,04,54,11.40
2006,09,26,04,55,11.40
2006,09,26,04,56,11.40
2006,09,26,04,57,11.40
2006,09,26,04,58,11.40
2006,09,26,04,59,11.40
2006,09,26,05,00,11.40
2006,09,26,05,01,11.30
2006,09,26,05,02,11.30
2006,09,26,05,03,11.30
2006,09,26,05,04,11.30
2006,09,26,05,05,11.30
2006,09,26,05,06,11.30
2006,09,26,05,07,11.30
2006,09,26,05,08,11.30
2006,09,26,05,09,11.30
2006,09,26,05,10,11.30
2006,09,26,05,11,11.30
2006,09,26,05,12,11.40
2006,09,26,05,13,11.40
2006,09,26,05,14,11.40
2006,09,26,05,15,11.40
2006,09,26,05,16,11.40
2006,09,26,05,17,11.40
2006,09,26,05,18,11.40
2006,09,26,05,19,11.40
2006,09,26,05,20,11.40
2006,09,26,05,21,11.40
2006,09,26,05,22,11.40
2006,09,26,05,23,11.30
2006,09,26,05,24,11.30
2006,09,26,05,25,11.30
2006,09,26,05,26,11.30
2006,09,26,05,27,11.30
2006,09,26,05,28,11.30
2006,09,26,05,29,11.30
2006,09,26,05,30,11.30
2006,09,26,05,31,11.30
2006,09,26,05,32,11.30
2006,09,26,05,33,11.30
2006,09,26,05,34,11.30
2006,09,26,05,35,11.30
2006,09,26,05,36,11.30
2006,09,26,05,37,11.30
2006,09,26,05,38,11.30
2006,09,26,05,39,11.30
2006,09,26,05,40,11.30
2006,09,26,05,41,11.30
2006,09,26,05,42,11.30
2006,09,26,05,43,11.30
2006,09,26,05,44,11.30
2006,09,26,05,45,11.30
2006,09,26,05,46,11.40
2006,09,26,05,47,11.40
2006,09,26,05,48,11.40
2006,09,26,05,49,11.40
2006,09,26,05,50,11.40
2006,09,26,05,51,11.40
2006,09,26,05,52,11.40
2006,09,26,05,53,11.40
2006,09,26,05,54,11.40
2006,09,26,05,55,11.40
2006,09,26,05,56,11.40
2006,09,26,05,57,11.40
2006,09,26,05,58,11.30
2006,09,26,05,59,11.30
2006,09,26,06,00,11.30
2006,09,26,06,01,11.30
2006,09,26,06,02,11.30
2006,09,26,06,03,11.30
2006,09,26,06,04,11.30
2006,09,26,06,05,11.30
2006,09,26,06,06,11.30
2006,09,26,06,07,11.30
2006,09,26,06,08,11.30
2006,09,26,06,09,11.30
2006,09,26,06,10,11.30
2006,09,26,06,11,11.30
2006,09,26,06,12,11.30
2006,09,26,06,13,11.30
2006,09,26,06,14,11.30
2006,09,26,06,15,11.30
2006,09,26,06,16,11.30
2006,09,26,06,17,11.30
2006,09,26,06,18,11.30
2006,09,26,06,19,11.30
2006,09,26,06,20,11.30
2006,09,26,06,21,11.20
2006,09,26,06,22,11.20
2006,09,26,06,23,11.20
2006,09,26,06,24,11.20
2006,09,26,06,25,11.20
2006,09,26,06,26,11.20
2006,09,26,06,27,11.20
2006,09,26,06,28,11.20
2006,09,26,06,29,11.20
2006,09,26,06,30,11.20
2006,09,26,06,31,11.20
2006,09,26,06,32,11.10
2006,09,26,06,33,11.10
2006,09,26,06,34,11.10
2006,09,26,06,35,11.10
2006,09,26,06,36,11.10
2006,09,26,06,37,11.10
2006,09,26,06,38,11.10
2006,09,26,06,39,11.10
2006,09,26,06,40,11.10
2006,09,26,06,41,11.10
2006,09,26,06,42,11.10
2006,09,26,06,43,11.10
2006,09,26,06,44,11.10
2006,09,26,06,45,11.00
2006,09,26,06,46,10.90
2006,09,26,06,47,10.90
2006,09,26,06,48,10.90
2006,09,26,06,49,10.90
2006,09,26,06,50,10.90
2006,09,26,06,51,10.90
2006,09,26,06,52,10.90
2006,09,26,06,53,10.90
2006,09,26,06,54,10.90
2006,09,26,06,55,10.90
2006,09,26,06,56,10.90
2006,09,26,06,57,10.90
2006,09,26,06,58,10.90
2006,09,26,06,59,10.80
2006,09,26,07,00,10.80
2006,09,26,07,01,10.80
2006,09,26,07,02,10.80
2006,09,26,07,03,10.80
2006,09,26,07,04,10.80
2006,09,26,07,05,10.80
2006,09,26,07,06,10.80
2006,09,26,07,07,10.80
2006,09,26,07,08,10.80
2006,09,26,07,09,10.80
2006,09,26,07,10,10.80
2006,09,26,07,11,10.90
2006,09,26,07,12,10.90
2006,09,26,07,13,10.90
2006,09,26,07,14,10.90
2006,09,26,07,15,10.90
2006,09,26,07,16,10.90
2006,09,26,07,17,10.90
2006,09,26,07,18,10.90
2006,09,26,07,19,10.90
2006,09,26,07,20,10.90
2006,09,26,07,21,10.90
2006,09,26,07,22,10.90
2006,09,26,07,23,10.90
2006,09,26,07,24,10.90
2006,09,26,07,25,11.00
2006,09,26,07,26,11.10
2006,09,26,07,27,11.10
2006,09,26,07,28,11.10
2006,09,26,07,29,11.10
2006,09,26,07,30,11.20
2006,09,26,07,31,11.20
2006,09,26,07,32,11.20
2006,09,26,07,33,11.20
2006,09,26,07,34,11.30
2006,09,26,07,35,11.30
2006,09,26,07,36,11.30
2006,09,26,07,37,11.40
2006,09,26,07,38,11.40
2006,09,26,07,39,11.40
2006,09,26,07,40,11.40
2006,09,26,07,41,11.50
2006,09,26,07,42,11.60
2006,09,26,07,43,11.60
2006,09,26,07,44,11.70
2006,09,26,07,45,11.80
2006,09,26,07,46,11.80
2006,09,26,07,47,11.80
2006,09,26,07,48,11.80
2006,09,26,07,49,11.80
2006,09,26,07,50,11.80
2006,09,26,07,51,11.70
2006,09,26,07,52,11.70
2006,09,26,07,53,11.80
2006,09,26,07,54,11.80
2006,09,26,07,55,11.80
2006,09,26,07,56,11.80
2006,09,26,07,57,11.80
2006,09,26,07,58,11.90
2006,09,26,07,59,11.90
2006,09,26,08,00,11.90
2006,09,26,08,01,11.80
2006,09,26,08,02,11.80
2006,09,26,08,03,11.80
2006,09,26,08,04,11.80
2006,09,26,08,05,11.90
2006,09,26,08,06,11.90
2006,09,26,08,07,12.00
2006,09,26,08,08,12.00
2006,09,26,08,09,12.10
2006,09,26,08,10,12.20
2006,09,26,08,11,12.30
2006,09,26,08,12,12.40
2006,09,26,08,13,12.50
2006,09,26,08,14,12.60
2006,09,26,08,15,12.70
2006,09,26,08,16,12.80
2006,09,26,08,17,12.80
2006,09,26,08,18,12.90
2006,09,26,08,19,13.00
2006,09,26,08,20,13.00
2006,09,26,08,21,13.10
2006,09,26,08,22,13.20
2006,09,26,08,23,13.20
2006,09,26,08,24,13.30
2006,09,26,08,25,13.30
2006,09,26,08,26,13.30
2006,09,26,08,27,13.40
2006,09,26,08,28,13.50
2006,09,26,08,29,13.60
2006,09,26,08,30,13.60
2006,09,26,08,31,13.70
2006,09,26,08,32,13.70
2006,09,26,08,33,13.80
2006,09,26,08,34,13.80
2006,09,26,08,35,13.90
2006,09,26,08,36,13.90
2006,09,26,08,37,14.00
2006,09,26,08,38,14.10
2006,09,26,08,39,14.20
2006,09,26,08,40,14.20
2006,09,26,08,41,14.30
2006,09,26,08,42,14.30
2006,09,26,08,43,14.40
2006,09,26,08,44,14.40
2006,09,26,08,45,14.50
2006,09,26,08,46,14.50
2006,09,26,08,47,14.60
2006,09,26,08,48,14.60
2006,09,26,08,49,14.70
2006,09,26,08,50,14.80
2006,09,26,08,51,14.90
2006,09,26,08,52,15.00
2006,09,26,08,53,15.10
2006,09,26,08,54,15.20
2006,09,26,08,55,15.30
2006,09,26,08,56,15.30
2006,09,26,08,57,15.40
2006,09,26,08,58,15.50
2006,09,26,08,59,15.50
2006,09,26,09,00,15.60
2006,09,26,09,01,15.60
2006,09,26,09,02,15.70
2006,09,26,09,03,15.80
2006,09,26,09,04,15.80
2006,09,26,09,05,15.90
2006,09,26,09,06,15.90
2006,09,26,09,07,16.10
2006,09,26,09,08,16.10
2006,09,26,09,09,16.10
2006,09,26,09,10,16.20
2006,09,26,09,11,16.30
2006,09,26,09,12,16.40
2006,09,26,09,13,16.40
2006,09,26,09,14,16.60
2006,09,26,09,15,16.70
2006,09,26,09,16,16.70
2006,09,26,09,17,16.80
2006,09,26,09,18,16.80
2006,09,26,09,19,16.90
2006,09,26,09,20,17.00
2006,09,26,09,21,17.00
2006,09,26,09,22,17.10
2006,09,26,09,23,17.00
2006,09,26,09,24,16.80
2006,09,26,09,25,16.50
2006,09,26,09,26,16.10
2006,09,26,09,27,15.80
2006,09,26,09,28,15.60
2006,09,26,09,29,15.30
2006,09,26,09,30,15.10
2006,09,26,09,31,15.00
2006,09,26,09,32,14.80
2006,09,26,09,33,14.70
2006,09,26,09,34,14.70
2006,09,26,09,35,14.60
2006,09,26,09,36,14.60
2006,09,26,09,37,14.50
2006,09,26,09,38,14.50
2006,09,26,09,39,14.50
2006,09,26,09,40,14.50
2006,09,26,09,41,14.50
2006,09,26,09,42,14.50
2006,09,26,09,43,14.60
2006,09,26,09,44,14.60
2006,09,26,09,45,14.70
2006,09,26,09,46,14.70
2006,09,26,09,47,14.80
2006,09,26,09,48,14.80
2006,09,26,09,49,14.90
2006,09,26,09,50,15.00
2006,09,26,09,51,15.00
2006,09,26,09,52,15.10
2006,09,26,09,53,15.20
2006,09,26,09,54,15.30
2006,09,26,09,55,15.30
2006,09,26,09,56,15.40
2006,09,26,09,57,15.50
2006,09,26,09,58,15.60
2006,09,26,09,59,15.70
2006,09,26,10,00,15.80
2006,09,26,10,01,16.00
2006,09,26,10,02,16.10
2006,09,26,10,03,16.20
2006,09,26,10,04,16.40
2006,09,26,10,05,16.50
2006,09,26,10,06,16.70
2006,09,26,10,07,16.80
2006,09,26,10,08,17.00
2006,09,26,10,09,17.30
2006,09,26,10,10,17.60
2006,09,26,10,11,17.90
2006,09,26,10,12,18.20
2006,09,26,10,13,18.40
2006,09,26,10,14,18.60
2006,09,26,10,15,18.70
2006,09,26,10,16,18.90
2006,09,26,10,17,19.00
2006,09,26,10,18,19.10
2006,09,26,10,19,19.10
2006,09,26,10,20,19.20
2006,09,26,10,21,19.30
2006,09,26,10,22,19.40
2006,09,26,10,23,19.40
2006,09,26,10,24,19.50
2006,09,26,10,25,19.60
2006,09,26,10,26,19.70
2006,09,26,10,27,19.80
2006,09,26,10,28,19.80
2006,09,26,10,29,19.80
2006,09,26,10,30,19.80
2006,09,26,10,31,19.80
2006,09,26,10,32,19.80
2006,09,26,10,33,19.80
2006,09,26,10,34,19.80
2006,09,26,10,35,19.70
2006,09,26,10,36,19.70
2006,09,26,10,37,19.70
2006,09,26,10,38,19.70
2006,09,26,10,39,19.70
2006,09,26,10,40,19.60
2006,09,26,10,41,19.50
2006,09,26,10,42,19.50
2006,09,26,10,43,19.50
2006,09,26,10,44,19.50
2006,09,26,10,45,19.50
2006,09,26,10,46,19.60
2006,09,26,10,47,19.60
2006,09,26,10,48,19.60
2006,09,26,10,49,19.60
2006,09,26,10,50,19.60
2006,09,26,10,51,19.60
2006,09,26,10,52,19.70
2006,09,26,10,53,19.70
2006,09,26,10,54,19.80
2006,09,26,10,55,19.90
2006,09,26,10,56,19.90
2006,09,26,10,57,19.90
2006,09,26,10,58,19.90
2006,09,26,10,59,19.90
2006,09,26,11,00,19.90
2006,09,26,11,01,19.90
2006,09,26,11,02,19.90
2006,09,26,11,03,19.90
2006,09,26,11,04,19.90
2006,09,26,11,05,20.00
2006,09,26,11,06,20.00
2006,09,26,11,07,19.90
2006,09,26,11,08,20.00
2006,09,26,11,09,20.10
2006,09,26,11,10,20.10
2006,09,26,11,11,20.10
2006,09,26,11,12,20.10
2006,09,26,11,13,20.10
2006,09,26,11,14,20.20
2006,09,26,11,15,20.20
2006,09,26,11,16,20.20
2006,09,26,11,17,20.20
2006,09,26,11,18,20.20
2006,09,26,11,19,20.20
2006,09,26,11,20,20.30
2006,09,26,11,21,20.30
2006,09,26,11,22,20.30
2006,09,26,11,23,20.30
2006,09,26,11,24,20.30
2006,09,26,11,25,20.30
2006,09,26,11,26,20.30
2006,09,26,11,27,20.30
2006,09,26,11,28,20.20
2006,09,26,11,29,20.20
2006,09,26,11,30,20.20
2006,09,26,11,31,20.20
2006,09,26,11,32,20.30
2006,09,26,11,33,20.30
2006,09,26,11,34,20.30
2006,09,26,11,35,20.20
2006,09,26,11,36,20.30
2006,09,26,11,37,20.20
2006,09,26,11,38,20.20
2006,09,26,11,39,20.20
2006,09,26,11,40,20.40
2006,09,26,11,41,20.40
2006,09,26,11,42,20.50
2006,09,26,11,43,20.50
2006,09,26,11,44,20.50
2006,09,26,11,45,20.50
2006,09,26,11,46,20.50
2006,09,26,11,47,20.40
2006,09,26,11,48,20.30
2006,09,26,11,49,20.30
2006,09,26,11,50,20.20
2006,09,26,11,51,20.20
2006,09,26,11,52,20.10
2006,09,26,11,53,20.20
2006,09,26,11,54,20.20
2006,09,26,11,55,20.20
2006,09,26,11,56,20.20
2006,09,26,11,57,20.20
2006,09,26,11,58,20.30
2006,09,26,11,59,20.30
2006,09,26,12,00,20.40
2006,09,26,12,01,20.40
2006,09,26,12,02,20.50
2006,09,26,12,03,20.50
2006,09,26,12,04,20.60
2006,09,26,12,05,20.60
2006,09,26,12,06,20.60
2006,09,26,12,07,20.70
2006,09,26,12,08,20.70
2006,09,26,12,09,20.70
2006,09,26,12,10,20.70
2006,09,26,12,11,20.80
2006,09,26,12,12,20.80
2006,09,26,12,13,20.80
2006,09,26,12,14,20.70
2006,09,26,12,15,20.70
2006,09,26,12,16,20.70
2006,09,26,12,17,20.80
2006,09,26,12,18,20.70
2006,09,26,12,19,20.60
2006,09,26,12,20,20.60
2006,09,26,12,21,20.50
2006,09,26,12,22,20.50
2006,09,26,12,23,20.60
2006,09,26,12,24,20.60
2006,09,26,12,25,20.60
2006,09,26,12,26,20.60
2006,09,26,12,27,20.70
2006,09,26,12,28,20.70
2006,09,26,12,29,20.70
2006,09,26,12,30,20.80
2006,09,26,12,31,20.90
2006,09,26,12,32,21.00
2006,09,26,12,33,21.10
2006,09,26,12,34,21.10
2006,09,26,12,35,21.10
2006,09,26,12,36,21.10
2006,09,26,12,37,21.20
2006,09,26,12,38,21.30
2006,09,26,12,39,21.20
2006,09,26,12,40,21.20
2006,09,26,12,41,21.20
2006,09,26,12,42,21.20
2006,09,26,12,43,21.30
2006,09,26,12,44,21.30
2006,09,26,12,45,21.30
2006,09,26,12,46,21.30
2006,09,26,12,47,21.40
2006,09,26,12,48,21.40
2006,09,26,12,49,21.40
2006,09,26,12,50,21.40
2006,09,26,12,51,21.40
2006,09,26,12,52,21.40
2006,09,26,12,53,21.40
2006,09,26,12,54,21.30
2006,09,26,12,55,21.30
2006,09,26,12,56,21.30
2006,09,26,12,57,21.30
2006,09,26,12,58,21.30
2006,09,26,12,59,21.30
2006,09,26,13,00,21.30
2006,09,26,13,01,21.40
2006,09,26,13,02,21.50
2006,09,26,13,03,21.60
2006,09,26,13,04,21.60
2006,09,26,13,05,21.60
2006,09,26,13,06,21.60
2006,09,26,13,07,21.60
2006,09,26,13,08,21.70
2006,09,26,13,09,21.70
2006,09,26,13,10,21.60
2006,09,26,13,11,21.60
2006,09,26,13,12,21.60
2006,09,26,13,13,21.60
2006,09,26,13,14,21.70
2006,09,26,13,15,21.80
2006,09,26,13,16,21.80
2006,09,26,13,17,21.80
2006,09,26,13,18,21.80
2006,09,26,13,19,21.80
2006,09,26,13,20,21.80
2006,09,26,13,21,21.90
2006,09,26,13,22,21.90
2006,09,26,13,23,21.90
2006,09,26,13,24,22.00
2006,09,26,13,25,22.00
2006,09,26,13,26,22.10
2006,09,26,13,27,22.20
2006,09,26,13,28,22.20
2006,09,26,13,29,22.20
2006,09,26,13,30,22.10
2006,09,26,13,31,22.00
2006,09,26,13,32,22.10
2006,09,26,13,33,22.10
2006,09,26,13,34,22.20
2006,09,26,13,35,22.20
2006,09,26,13,36,22.20
2006,09,26,13,37,22.20
2006,09,26,13,38,22.20
2006,09,26,13,39,22.20
2006,09,26,13,40,22.20
2006,09,26,13,41,22.10
2006,09,26,13,42,22.10
2006,09,26,13,43,22.10
2006,09,26,13,44,22.00
2006,09,26,13,45,22.00
2006,09,26,13,46,22.00
2006,09,26,13,47,22.00
2006,09,26,13,48,22.00
2006,09,26,13,49,22.00
2006,09,26,13,50,22.10
2006,09,26,13,51,22.20
2006,09,26,13,52,22.20
2006,09,26,13,53,22.20
2006,09,26,13,54,22.20
2006,09,26,13,55,22.20
2006,09,26,13,56,22.30
2006,09,26,13,57,22.30
2006,09,26,13,58,22.20
2006,09,26,13,59,22.20
2006,09,26,14,00,22.10
2006,09,26,14,01,22.10
2006,09,26,14,02,22.20
2006,09,26,14,03,22.20
2006,09,26,14,04,22.30
2006,09,26,14,05,22.40
2006,09,26,14,06,22.40
2006,09,26,14,07,22.30
2006,09,26,14,08,22.30
2006,09,26,14,09,22.30
2006,09,26,14,10,22.40
2006,09,26,14,11,22.50
2006,09,26,14,12,22.50
2006,09,26,14,13,22.50
2006,09,26,14,14,22.50
2006,09,26,14,15,22.50
2006,09,26,14,16,22.40
2006,09,26,14,17,22.40
2006,09,26,14,18,22.40
2006,09,26,14,19,22.40
2006,09,26,14,20,22.40
2006,09,26,14,21,22.50
2006,09,26,14,22,22.60
2006,09,26,14,23,22.70
2006,09,26,14,24,22.70
2006,09,26,14,25,22.70
2006,09,26,14,26,22.70
2006,09,26,14,27,22.80
2006,09,26,14,28,22.80
2006,09,26,14,29,22.90
2006,09,26,14,30,22.90
2006,09,26,14,31,22.80
2006,09,26,14,32,22.70
2006,09,26,14,33,22.70
2006,09,26,14,34,22.60
2006,09,26,14,35,22.60
2006,09,26,14,36,22.60
2006,09,26,14,37,22.60
2006,09,26,14,38,22.60
2006,09,26,14,39,22.60
2006,09,26,14,40,22.70
2006,09,26,14,41,22.70
2006,09,26,14,42,22.70
2006,09,26,14,43,22.70
2006,09,26,14,44,22.70
2006,09,26,14,45,22.70
2006,09,26,14,46,22.70
2006,09,26,14,47,22.60
2006,09,26,14,48,22.60
2006,09,26,14,49,22.60
2006,09,26,14,50,22.50
2006,09,26,14,51,22.50
2006,09,26,14,52,22.50
2006,09,26,14,53,22.60
2006,09,26,14,54,22.60
2006,09,26,14,55,22.60
2006,09,26,14,56,22.60
2006,09,26,14,57,22.60
2006,09,26,14,58,22.60
2006,09,26,14,59,22.70
2006,09,26,15,00,22.70
2006,09,26,15,01,22.70
2006,09,26,15,02,22.70
2006,09,26,15,03,22.70
2006,09,26,15,04,22.60
2006,09,26,15,05,22.60
2006,09,26,15,06,22.60
2006,09,26,15,07,22.70
2006,09,26,15,08,22.70
2006,09,26,15,09,22.70
2006,09,26,15,10,22.70
2006,09,26,15,11,22.70
2006,09,26,15,12,22.70
2006,09,26,15,13,22.80
2006,09,26,15,14,22.80
2006,09,26,15,15,22.80
2006,09,26,15,16,22.90
2006,09,26,15,17,22.90
2006,09,26,15,18,22.90
2006,09,26,15,19,22.90
2006,09,26,15,20,22.90
2006,09,26,15,21,22.90
2006,09,26,15,22,23.10
2006,09,26,15,23,23.10
2006,09,26,15,24,23.10
2006,09,26,15,25,23.10
2006,09,26,15,26,23.10
2006,09,26,15,27,23.00
2006,09,26,15,28,22.90
2006,09,26,15,29,22.90
2006,09,26,15,30,22.90
2006,09,26,15,31,22.90
2006,09,26,15,32,22.90
2006,09,26,15,33,22.90
2006,09,26,15,34,23.00
2006,09,26,15,35,23.10
2006,09,26,15,36,23.10
2006,09,26,15,37,23.10
2006,09,26,15,38,23.00
2006,09,26,15,39,22.90
2006,09,26,15,40,22.90
2006,09,26,15,41,23.00
2006,09,26,15,42,23.10
2006,09,26,15,43,23.10
2006,09,26,15,44,23.10
2006,09,26,15,45,23.10
2006,09,26,15,46,23.10
2006,09,26,15,47,23.10
2006,09,26,15,48,23.10
2006,09,26,15,49,23.10
2006,09,26,15,50,23.10
2006,09,26,15,51,23.00
2006,09,26,15,52,22.90
2006,09,26,15,53,22.90
2006,09,26,15,54,22.90
2006,09,26,15,55,22.90
2006,09,26,15,56,23.00
2006,09,26,15,57,23.10
2006,09,26,15,58,23.10
2006,09,26,15,59,23.10
2006,09,26,16,00,23.00
2006,09,26,16,01,22.90
2006,09,26,16,02,22.90
2006,09,26,16,03,23.00
2006,09,26,16,04,23.10
2006,09,26,16,05,23.20
2006,09,26,16,06,23.30
2006,09,26,16,07,23.30
2006,09,26,16,08,23.20
2006,09,26,16,09,23.20
2006,09,26,16,10,23.30
2006,09,26,16,11,23.30
2006,09,26,16,12,23.30
2006,09,26,16,13,23.20
2006,09,26,16,14,23.10
2006,09,26,16,15,23.10
2006,09,26,16,16,23.10
2006,09,26,16,17,23.10
2006,09,26,16,18,23.10
2006,09,26,16,19,23.10
2006,09,26,16,20,23.10
2006,09,26,16,21,23.10
2006,09,26,16,22,23.00
2006,09,26,16,23,22.90
2006,09,26,16,24,22.90
2006,09,26,16,25,22.90
2006,09,26,16,26,22.90
2006,09,26,16,27,22.90
2006,09,26,16,28,22.90
2006,09,26,16,29,22.90
2006,09,26,16,30,22.90
2006,09,26,16,31,22.90
2006,09,26,16,32,22.90
2006,09,26,16,33,22.90
2006,09,26,16,34,22.90
2006,09,26,16,35,22.90
2006,09,26,16,36,22.90
2006,09,26,16,37,22.90
2006,09,26,16,38,22.90
2006,09,26,16,39,22.90
2006,09,26,16,40,22.90
2006,09,26,16,41,22.90
2006,09,26,16,42,23.00
2006,09,26,16,43,23.10
2006,09,26,16,44,23.10
2006,09,26,16,45,22.90
2006,09,26,16,46,22.90
2006,09,26,16,47,22.90
2006,09,26,16,48,22.90
2006,09,26,16,49,22.90
2006,09,26,16,50,22.90
2006,09,26,16,51,22.90
2006,09,26,16,52,22.90
2006,09,26,16,53,22.90
2006,09,26,16,54,22.90
2006,09,26,16,55,22.90
2006,09,26,16,56,22.90
2006,09,26,16,57,23.10
2006,09,26,16,58,23.10
2006,09,26,16,59,23.10
2006,09,26,17,00,23.20
2006,09,26,17,01,23.20
2006,09,26,17,02,23.10
2006,09,26,17,03,22.80
2006,09,26,17,04,22.50
2006,09,26,17,05,22.30
2006,09,26,17,06,22.10
2006,09,26,17,07,21.90
2006,09,26,17,08,21.70
2006,09,26,17,09,21.50
2006,09,26,17,10,21.30
2006,09,26,17,11,21.20
2006,09,26,17,12,21.20
2006,09,26,17,13,21.20
2006,09,26,17,14,21.20
2006,09,26,17,15,21.20
2006,09,26,17,16,21.30
2006,09,26,17,17,21.30
2006,09,26,17,18,21.30
2006,09,26,17,19,21.30